This demonstration page uses our WeatherBlox Daily Observations layout. Learn more.

Left ArrowRight Arrow

Hourly Observations for October 12, 2018

Temp ( °F °C ) Dew Point ( °F °C ) Humidity (%) Winds ( mph kmh ) Pressure ( in mb ) Visibility ( mi km ) Precip ( " mm )
12:51 am 00:51 Clear 67 19.4 53 11.7 61 61 E 6 9 29.81 1009 10 16 0.00 0.00
1:51 am 01:51 Clear 67 19.4 53 11.7 61 61 E 12 19 29.80 1009 10 16 0.00 0.00
2:51 am 02:51 Clear 66 18.9 53 11.7 63 63 E 7 11 29.80 1009 10 16 0.00 0.00
3:51 am 03:51 Partly Cloudy 67 19.4 53 11.7 61 61 ESE 9 15 29.79 1009 10 16 0.00 0.00
4:51 am 04:51 Cloudy 64 17.8 58 14.4 81 81 SE 13 20 29.82 1010 10 16 0.00 0.00
5:51 am 05:51 Cloudy with Light Rain 62 16.7 59 15 90 90 SE 10 17 29.85 1011 10 16 0.00 0.03
6:51 am 06:51 Cloudy with Light Rain 61 16.1 60 15.6 97 97 ESE 6 9 29.89 1012 6 10 0.05 1.27
7:51 am 07:51 Cloudy with Light Rain 61 16.1 61 16.1 100 100 ESE 6 9 29.88 1012 8 13 0.05 1.27
8:51 am 08:51 Cloudy with Light Rain 62 16.7 61 16.1 96 96 SE 8 13 29.91 1013 9 14 0.05 1.27
9:33 am 09:33 Cloudy with Rain 62 16.7 61 16.1 96 96 SE 9 15 29.94 1014 3 5 0.04 1.02
9:51 am 09:51 Cloudy with Light Rain 61 16.1 61 16.1 100 100 SE 12 19 29.93 1013 4 6 0.07 1.78
10:41 am 10:41 Cloudy with Light Rain 62 16.7 61 16.1 96 96 SE 5 7 29.94 1014 5 8 0.06 1.52
10:51 am 10:51 Cloudy with Light Rain 61 16.1 60 15.6 97 97 SE 6 9 29.92 1013 6 10 0.07 1.78
11:08 am 11:08 Cloudy with Light Rain 63 17 61 16 94 94 SSE 7 11 29.91 1013 5 8 0.00 0.00
11:51 am 11:51 Partly Cloudy with Light Rain 62 16.7 61 16.1 96 96 ESE 7 11 29.90 1013 3 5 0.10 2.54
12:51 pm 12:51 Cloudy with Light Rain 62 16.7 61 16.1 96 96 ESE 7 11 29.87 1012 6 10 0.07 1.78
2:51 pm 14:51 Cloudy 64 17.8 59 15 84 84 E 13 20 29.79 1009 10 16 0.00 0.03
3:51 pm 15:51 Cloudy 64 17.8 57 13.9 78 78 ESE 10 17 29.79 1009 10 16 0.00 0.03
4:51 pm 16:51 Partly Cloudy 63 17.2 57 13.9 81 81 ESE 7 11 29.78 1009 10 16 0.00 0.00
5:51 pm 17:51 Clear 63 17.2 58 14.4 84 84 SE 5 7 29.79 1009 10 16 0.00 0.00
6:51 pm 18:51 Mostly Cloudy 63 17.2 58 14.4 84 84 SE 8 13 29.81 1010 10 16 0.00 0.00
7:51 pm 19:51 Clear 62 16.7 58 14.4 86 86 ESE 7 11 29.83 1010 10 16 0.00 0.00
8:51 pm 20:51 Mostly Cloudy 61 16.1 59 15 93 93 E 6 9 29.83 1010 10 16 0.00 0.00
9:51 pm 21:51 Cloudy 62 16.7 58 14.4 86 86 SSE 5 7 29.83 1010 10 16 0.00 0.00
10:08 pm 22:08 Cloudy 63 17 57 14 83 83 SSE 3 6 29.83 1010 10 16 0.00 0.00
10:51 pm 22:51 Cloudy 61 16.1 58 14.4 90 90 Calm 29.83 1010 10 16 0.00 0.00
11:40 pm 23:40 Cloudy 61 16 57 14 88 88 ESE 7 11 29.83 1010 10 16 0.00 0.00
11:51 pm 23:51 Mostly Cloudy 60 15.6 57 13.9 90 90 SE 7 11 29.82 1010 10 16 0.00 0.00

Powered by AerisWeather